Date,TemperatureHighF,TemperatureAvgF,TemperatureLowF,DewpointHighF,DewpointAvgF,DewpointLowF,HumidityHigh,HumidityAvg,HumidityLow,PressureMaxIn,PressureMinIn,WindSpeedMaxMPH,WindSpeedAvgMPH,GustSpeedMaxMPH,PrecipitationSumIn
2013-1-1,15,3,-13,7,-5,-19,81,70,48,30.30,30.09,12,1,12,0.00
2013-1-2,19,15,11,11,10,7,89,78,65,30.09,30.01,14,1,14,0.00
2013-1-3,21,16,9,15,11,4,87,82,73,30.16,30.03,16,2,16,0.00
2013-1-4,34,18,7,19,12,3,89,76,55,30.17,29.99,16,2,16,0.01
2013-1-5,28,15,2,19,10,-2,90,81,63,30.17,29.89,12,1,12,0.00
2013-1-6,28,21,9,21,17,6,92,83,65,30.22,29.88,15,2,15,0.00
2013-1-7,35,24,9,23,17,6,90,76,61,30.18,29.88,22,3,22,0.00
2013-1-8,37,26,10,28,21,7,94,83,63,30.07,29.78,17,3,17,0.01
2013-1-9,36,30,19,28,22,14,86,71,55,30.41,29.78,29,4,29,0.00
2013-1-10,40,29,16,32,20,13,96,72,36,30.45,29.84,22,4,22,0.01
2013-1-11,42,36,33,42,36,32,100,100,96,29.85,29.44,21,2,21,0.20
2013-1-12,43,27,12,43,21,4,100,80,69,30.01,29.40,27,4,27,0.01
2013-1-13,14,11,3,7,4,-2,79,72,65,30.22,29.96,20,2,20,0.00
2013-1-14,14,5,-3,6,-1,-8,82,76,64,30.44,30.22,15,2,15,0.00
2013-1-15,27,14,-2,14,6,-6,85,71,46,30.40,29.91,20,2,20,0.00
2013-1-16,28,21,12,24,14,3,92,75,57,30.12,29.62,20,4,20,0.00
2013-1-17,12,5,-5,3,-4,-11,80,66,48,30.43,30.12,16,2,16,0.00
2013-1-18,32,17,-5,25,12,-9,93,83,73,30.40,29.75,16,1,16,0.00
2013-1-19,38,25,2,31,19,-7,94,79,56,29.96,29.53,33,4,35,0.02
2013-1-20,6,0,-7,-7,-10,-13,75,63,43,30.33,29.96,24,3,25,0.00
2013-1-21,-5,-12,-18,-12,-22,-26,76,62,43,30.34,30.17,20,3,20,0.00
2013-1-22,0,-11,-19,-16,-21,-27,72,61,43,30.42,30.32,12,1,12,0.00
2013-1-23,10,-3,-16,4,-10,-22,79,71,60,30.54,30.12,21,2,21,0.00
2013-1-24,7,-2,-17,1,-11,-24,79,64,42,30.75,30.36,9,1,14,0.00
2013-1-25,16,11,4,11,6,0,85,82,75,30.36,29.93,13,2,13,0.00
2013-1-26,21,10,-6,10,3,-11,82,73,59,30.41,30.23,16,2,16,0.00
2013-1-27,28,23,18,28,18,9,97,79,59,30.27,29.85,16,4,16,0.00
2013-1-28,35,30,28,31,29,27,99,94,81,29.90,29.74,14,2,14,0.17
2013-1-29,36,33,29,36,32,27,100,96,86,29.75,29.48,18,4,18,0.23
2013-1-30,30,20,10,27,17,6,92,87,77,29.59,29.40,21,6,21,0.00
2013-1-31,10,5,-2,6,-1,-8,83,75,65,30.12,29.57,17,4,20,0.00
2013-2-1,3,-5,-14,-8,-13,-20,75,66,52,30.30,30.12,14,2,14,0.00
2013-2-2,13,2,-7,1,-6,-13,76,68,51,30.20,30.01,10,1,10,0.00
2013-2-3,11,4,-4,-1,-4,-10,80,71,51,30.06,29.92,19,2,19,0.00
2013-2-4,15,3,-11,-3,-8,-17,79,60,30,30.09,29.88,13,1,13,0.01
2013-2-5,19,11,-2,15,6,-8,90,81,60,30.12,29.71,14,2,14,0.00
2013-2-6,22,9,-12,18,4,-19,93,81,64,30.24,30.10,15,2,15,0.00
2013-2-7,23,21,18,22,19,14,95,92,84,30.25,30.07,18,4,18,0.00
2013-2-8,26,14,4,14,7,0,85,74,46,30.40,30.25,16,2,16,0.00
2013-2-9,22,15,6,21,11,2,94,84,69,30.37,30.06,19,3,19,0.00
2013-2-10,33,28,22,33,27,20,100,96,92,30.06,29.26,22,3,22,0.00
2013-2-11,33,27,20,33,25,16,100,93,84,29.94,29.23,18,3,19,0.19
2013-2-12,24,19,14,19,15,12,91,85,78,30.00,29.79,16,1,16,0.00
2013-2-13,36,25,13,30,22,11,97,88,74,29.80,29.59,12,0,12,0.11
2013-2-14,28,28,28,28,27,27,98,98,97,29.59,29.58,0,0,0,0.00
2013-2-15,17,8,-1,7,1,-6,84,72,57,30.25,30.04,16,2,17,0.00
2013-2-16,14,1,-12,1,-7,-18,81,70,46,30.26,30.18,13,1,13,0.00
2013-2-17,21,4,-20,9,-7,-28,74,59,38,30.25,29.88,17,3,17,0.00
2013-2-18,35,26,18,28,20,9,95,78,66,29.88,29.46,17,4,17,0.02
2013-2-19,26,9,2,23,2,-6,91,73,58,30.22,29.48,26,6,26,0.00
2013-2-20,20,11,4,6,2,-3,80,68,51,30.47,30.21,15,4,19,0.00
2013-2-21,28,13,-9,16,5,-15,89,72,52,30.53,30.17,20,3,20,0.00
2013-2-22,26,22,18,23,19,15,92,89,85,30.17,29.81,17,3,17,0.00
2013-2-23,29,23,17,25,20,15,93,88,76,29.89,29.78,11,1,11,0.00
2013-2-24,32,27,24,24,21,17,92,78,60,30.11,29.89,13,1,13,0.03
2013-2-25,32,26,15,26,22,13,92,85,75,30.15,30.06,8,1,8,0.01
2013-2-26,32,29,25,25,23,21,90,79,69,30.09,29.83,21,5,21,0.00
2013-2-27,30,29,27,27,24,22,92,84,77,29.90,29.76,23,8,23,0.00
2013-2-28,29,25,20,24,18,12,88,73,59,30.22,29.90,16,8,23,0.00
2013-3-1,27,20,12,13,9,3,76,63,45,30.35,30.21,17,5,17,0.00
2013-3-2,27,14,0,8,4,-5,85,64,39,30.34,30.20,17,2,17,0.00
2013-3-3,31,13,-9,5,-3,-14,82,54,23,30.25,30.11,11,1,11,0.00
2013-3-4,30,20,2,13,6,-5,81,57,31,30.17,30.08,18,4,18,0.00
2013-3-5,29,25,21,19,15,8,84,66,49,30.21,30.02,21,5,21,0.00
2013-3-6,32,24,12,19,16,8,88,73,51,30.35,30.21,15,3,15,0.01
2013-3-7,33,18,-2,15,9,-7,86,67,46,30.45,30.34,11,1,11,0.01
2013-3-8,40,27,14,23,18,10,87,69,43,30.44,30.23,17,2,17,0.00
2013-3-9,33,31,27,33,28,22,100,88,76,30.23,29.76,21,5,21,0.26
2013-3-10,34,32,27,33,31,25,100,95,84,29.90,29.73,22,5,22,0.06
2013-3-11,28,25,20,26,23,17,97,92,86,29.78,29.61,18,5,18,0.00
2013-3-12,25,20,17,19,16,12,90,84,72,30.04,29.73,17,3,17,0.00
2013-3-13,32,20,10,14,8,3,89,63,32,30.29,30.04,19,3,19,0.02
2013-3-14,35,22,0,24,12,-4,90,67,34,30.29,29.98,12,1,12,0.03
2013-3-15,32,28,20,27,21,15,92,77,52,30.00,29.87,16,3,16,0.00
2013-3-16,26,18,11,16,9,2,88,70,51,30.20,29.91,17,3,17,0.01
2013-3-17,24,13,-7,9,-1,-13,81,57,30,30.32,30.05,18,4,19,0.00
2013-3-18,26,20,14,24,17,9,93,86,76,30.06,29.52,23,5,23,0.00
2013-3-19,28,18,10,11,5,-1,85,61,31,29.99,29.57,30,7,32,0.00
2013-3-20,18,14,7,2,0,-3,71,55,46,30.10,29.98,21,4,21,0.00
2013-3-21,15,6,0,8,1,-4,84,79,72,30.08,30.05,10,2,10,0.00
2013-3-22,32,22,-1,19,13,-6,84,69,53,30.10,30.04,7,2,16,0.00
2013-3-23,34,28,24,20,19,17,77,68,53,30.16,30.07,13,2,13,0.01
2013-3-24,31,27,21,22,19,13,82,72,60,30.10,29.92,20,5,20,0.00
2013-3-25,36,26,15,22,18,13,91,73,47,30.16,29.96,20,5,20,0.00
2013-3-26,36,30,24,24,21,17,85,70,47,30.25,30.15,14,2,14,0.00
2013-3-27,42,32,24,22,17,13,80,55,31,30.31,30.25,16,2,16,0.00
2013-3-28,45,31,11,19,14,8,87,53,26,30.35,30.27,16,1,16,0.00
2013-3-29,49,34,14,20,16,12,89,52,26,30.33,30.14,14,1,14,0.00
2013-3-30,38,34,29,38,30,17,100,87,55,30.15,29.77,20,2,20,0.75
2013-3-31,37,31,23,34,25,9,100,80,41,29.94,29.65,19,4,27,0.02
2013-4-1,32,24,18,16,7,1,81,51,29,30.15,29.94,26,4,26,0.00
2013-4-2,35,25,14,11,7,2,73,48,26,30.32,30.14,19,3,19,0.00
2013-4-3,39,25,7,16,8,0,83,52,21,30.46,30.14,18,2,18,0.00
2013-4-4,50,39,28,30,21,15,69,51,28,30.14,29.92,25,4,25,0.00
2013-4-5,41,31,19,28,16,8,93,56,27,30.26,30.09,11,2,12,0.00
2013-4-6,45,35,28,37,31,26,99,85,58,30.11,29.50,25,6,25,0.43
2013-4-7,47,36,31,33,29,27,99,77,49,29.93,29.56,20,2,20,0.01
2013-4-8,38,36,33,36,34,30,98,92,78,30.02,29.76,14,2,14,0.15
2013-4-9,37,35,30,36,25,16,100,70,54,30.15,30.04,21,7,21,0.00
2013-4-10,42,34,27,24,18,11,91,56,32,30.21,30.00,20,5,22,0.06
2013-4-11,34,31,27,26,22,14,92,70,48,30.02,29.72,33,8,33,0.00
2013-4-12,33,30,26,28,26,22,92,85,77,29.74,29.65,16,2,16,0.12
2013-4-13,36,29,23,26,21,17,92,73,50,29.99,29.73,16,2,22,0.11
2013-4-14,35,26,14,31,23,11,96,86,54,30.03,29.68,29,4,29,0.01
2013-4-15,44,36,32,38,29,23,100,80,44,29.87,29.58,25,3,25,0.33
2013-4-16,45,37,30,28,26,23,81,65,44,30.35,29.88,18,3,18,0.00
2013-4-17,41,35,27,33,26,23,92,69,51,30.37,29.95,21,4,21,0.00
2013-4-18,36,34,33,35,34,32,100,98,93,29.95,29.23,18,4,18,0.56
2013-4-19,33,27,21,33,24,16,100,86,67,29.91,29.14,24,4,24,0.04
2013-4-20,37,26,13,17,11,5,89,58,27,30.40,29.91,18,2,18,0.02
2013-4-21,36,31,24,32,23,11,94,72,53,30.45,30.18,26,5,26,0.11
2013-4-22,41,38,34,41,38,32,100,99,94,30.18,30.05,10,2,13,0.37
2013-4-23,36,33,27,35,29,23,100,86,68,30.03,29.87,19,5,19,0.24
2013-4-24,48,39,18,32,23,14,96,57,33,30.02,29.87,19,3,19,0.01
2013-4-25,46,36,29,32,28,23,99,75,41,30.23,29.88,16,2,16,0.14
2013-4-26,67,48,28,41,34,24,88,62,36,30.22,30.02,20,2,20,0.06
2013-4-27,69,54,34,49,42,32,100,68,37,30.13,29.93,13,1,13,0.00
2013-4-28,70,58,41,48,42,39,96,60,34,29.94,29.69,20,2,20,0.01
2013-4-29,71,58,48,59,52,48,100,83,47,29.75,29.63,20,1,20,0.66
2013-4-30,81,66,50,58,52,33,96,66,31,29.88,29.48,22,4,30,0.35
2013-5-1,51,45,34,49,41,30,100,86,65,30.40,29.88,21,4,21,0.59
2013-5-2,35,32,29,32,29,26,96,91,84,30.46,30.35,21,3,21,0.04
2013-5-3,34,31,29,34,30,26,99,95,91,30.35,30.14,13,1,13,0.05
2013-5-4,68,48,34,51,42,34,100,81,51,30.14,30.02,12,4,12,0.05
2013-5-5,73,55,37,46,38,31,93,61,23,30.11,30.00,14,2,14,0.00
2013-5-6,76,58,34,44,37,28,100,55,18,30.07,29.95,13,1,13,0.00
2013-5-7,78,62,39,44,37,24,93,46,14,30.03,29.93,14,1,14,0.00
2013-5-8,78,63,40,47,40,34,87,48,23,29.98,29.89,13,0,13,0.00
2013-5-9,60,51,36,50,42,35,97,75,54,30.06,29.88,21,5,21,0.27
2013-5-10,64,46,33,35,28,19,94,57,19,30.08,29.87,20,4,20,0.00
2013-5-11,45,39,33,39,30,22,89,72,42,30.04,29.75,29,5,29,0.04
2013-5-12,49,38,28,28,21,14,87,55,27,30.14,30.03,24,4,24,0.00
2013-5-13,59,44,21,32,23,16,93,50,23,30.15,29.77,16,2,16,0.00
2013-5-14,75,53,40,45,38,32,78,58,33,29.77,29.65,13,2,13,0.00
2013-5-15,76,65,52,43,37,34,67,38,22,29.80,29.70,18,1,23,0.00
2013-5-16,76,61,42,46,36,26,91,45,21,29.98,29.79,18,3,18,0.00
2013-5-17,66,56,48,52,44,33,88,64,41,30.08,29.97,20,4,20,0.00
2013-5-18,75,61,49,60,53,44,94,77,58,30.06,29.87,20,4,20,0.12
2013-5-19,82,70,60,63,60,58,95,73,46,29.87,29.60,24,5,24,0.00
2013-5-20,79,68,57,62,58,54,97,71,43,29.67,29.50,26,4,26,0.23
2013-5-21,70,62,56,62,59,54,100,89,67,29.64,29.46,13,1,13,0.69
2013-5-22,59,53,46,58,52,44,100,97,91,29.91,29.62,26,5,26,0.16
2013-5-23,54,45,34,45,33,24,95,67,31,30.35,29.91,25,6,25,0.00
2013-5-24,64,48,28,40,32,27,100,61,28,30.44,30.27,14,1,14,0.00
2013-5-25,65,54,40,41,38,34,93,57,33,30.34,30.25,17,3,17,0.00
2013-5-26,65,53,34,42,35,29,98,55,27,30.30,30.15,22,4,22,0.00
2013-5-27,65,56,46,46,40,32,78,57,38,30.16,29.88,29,6,29,0.00
2013-5-28,56,52,50,54,50,44,100,91,79,29.88,29.70,12,2,12,0.11
2013-5-29,75,60,54,67,58,54,100,95,66,29.86,28.24,11,1,15,0.83
2013-5-30,80,68,60,69,65,60,100,91,60,29.84,29.69,24,4,24,0.60
2013-5-31,78,65,55,65,58,53,99,79,49,29.73,29.64,13,3,20,0.51
2013-6-1,68,56,43,60,54,41,100,93,70,29.81,29.61,17,1,17,0.38
2013-6-2,60,47,40,43,38,34,95,73,40,30.02,29.81,22,4,22,0.00
2013-6-3,69,54,34,44,37,32,100,60,27,30.11,30.00,19,2,19,0.00
2013-6-4,56,52,47,51,45,36,94,76,57,30.18,30.10,15,2,15,0.02
2013-6-5,53,50,48,52,49,48,100,96,87,30.16,29.99,22,4,22,1.19
2013-6-6,55,51,48,51,48,45,100,90,78,30.02,29.99,11,2,11,0.21
2013-6-7,64,53,44,52,47,43,99,81,53,30.04,29.95,12,1,12,0.01
2013-6-8,65,55,48,54,50,47,100,85,57,30.02,29.94,12,1,14,0.46
2013-6-9,68,58,46,57,52,46,100,82,63,30.03,29.89,26,4,26,0.05
2013-6-10,80,67,54,63,58,54,100,75,46,29.90,29.82,12,1,12,0.00
2013-6-11,80,66,51,63,58,51,100,78,50,29.92,29.85,11,1,11,0.00
2013-6-12,61,56,54,55,53,52,96,92,79,29.95,29.90,0,0,4,0.00
2013-6-13,73,63,49,56,51,49,100,69,46,30.14,29.86,17,3,21,0.01
2013-6-14,76,62,43,57,49,42,100,66,37,30.16,30.00,15,1,15,0.00
2013-6-15,64,61,59,64,57,52,100,89,66,30.01,29.93,9,1,9,0.51
2013-6-16,79,76,72,57,52,46,61,43,35,29.88,29.87,29,5,29,0.01
2013-6-17,70,61,50,64,57,50,100,87,64,30.05,29.89,11,2,12,0.10
2013-6-18,70,58,43,51,44,37,98,64,34,30.14,30.05,17,2,17,0.00
2013-6-19,75,60,42,57,49,41,100,70,38,30.15,30.05,15,1,15,0.00
2013-6-20,81,68,54,65,59,53,100,76,49,30.16,30.05,20,1,20,0.64
2013-6-21,72,65,62,66,63,59,100,93,81,30.13,29.79,32,3,32,1.02
2013-6-22,75,66,60,66,63,59,100,90,70,30.08,29.91,18,3,18,0.04
2013-6-23,82,72,62,70,65,62,100,80,58,29.93,29.83,20,2,20,0.00
2013-6-24,83,72,60,70,66,60,100,82,57,29.96,29.85,14,1,14,0.00
2013-6-25,83,72,62,67,65,61,100,80,55,29.90,29.81,12,0,12,0.00
2013-6-26,85,69,60,73,67,60,100,93,60,29.81,29.74,19,1,19,0.78
2013-6-27,81,69,62,70,65,60,100,90,57,29.81,29.73,29,1,29,1.11
2013-7-3,76,63,45,58,50,43,100,69,35,30.12,30.03,9,1,15,0.00
2013-7-4,80,69,56,62,59,55,100,74,47,30.05,29.98,8,1,13,0.00
2013-7-5,83,72,57,62,59,56,98,67,40,30.02,29.94,7,1,16,0.00
2013-7-6,86,75,63,65,63,60,93,68,46,29.99,29.93,5,1,13,0.00
2013-7-7,84,74,68,72,68,63,100,82,62,29.98,29.90,6,1,14,0.15
2013-7-8,83,73,65,71,68,65,100,85,59,30.00,29.90,5,1,13,1.67
2013-7-9,77,72,64,73,69,64,100,92,82,30.01,29.78,16,1,16,0.32
2013-7-10,74,65,54,68,56,51,100,75,47,30.04,29.82,19,3,19,0.00
2013-7-11,80,66,50,60,54,47,100,70,34,30.13,30.04,10,1,11,0.00
2013-7-12,81,74,60,61,58,55,92,59,43,30.11,30.04,14,2,16,0.00
2013-7-13,81,70,60,64,60,56,88,71,48,30.15,30.05,14,1,14,0.00
2013-7-14,84,73,58,67,62,56,97,71,50,30.24,30.15,13,1,13,0.00
2013-7-15,87,74,60,71,67,60,100,79,53,30.30,30.24,12,0,12,0.00
2013-7-16,90,80,69,73,71,69,100,77,53,30.27,30.20,12,1,12,0.00
2013-7-17,90,79,68,73,69,65,100,74,47,30.27,30.16,13,1,13,0.00
2013-7-18,90,80,67,74,69,67,100,73,50,30.16,29.81,21,2,21,0.00
2013-7-19,84,76,60,74,65,56,99,71,45,29.86,29.71,22,3,22,0.14
2013-7-20,74,66,59,59,54,48,92,70,41,30.02,29.84,11,1,11,0.00
2013-7-21,67,60,52,59,54,47,96,81,70,30.03,29.93,15,3,15,0.01
2013-7-22,81,67,57,74,63,57,100,89,63,29.93,29.66,17,2,17,0.20
2013-7-23,67,58,48,59,50,44,98,76,45,30.04,29.79,19,3,19,0.01
2013-7-24,74,60,44,58,51,43,100,76,41,30.10,30.02,9,0,9,0.00
2013-7-25,79,65,51,64,58,51,100,81,50,30.03,29.91,15,1,15,0.00
2013-7-26,74,61,49,64,56,44,100,85,44,29.99,29.85,17,2,17,0.07
2013-7-27,56,50,44,49,45,42,97,85,65,29.98,29.84,13,2,13,0.01
2013-7-28,63,53,45,53,49,43,100,87,67,30.02,29.85,21,2,21,0.00
2013-7-29,76,60,41,57,50,41,100,73,42,30.15,30.02,9,1,11,0.00
2013-7-30,71,62,55,62,59,54,100,89,65,30.17,30.08,10,0,11,0.09
2013-7-31,75,66,54,63,59,52,100,80,51,30.08,29.94,12,1,19,0.00
2013-8-1,74,62,50,58,52,49,96,75,43,29.99,29.89,16,2,19,0.00
2013-8-2,74,65,51,60,53,47,100,70,39,30.01,29.85,19,2,19,0.21
2013-8-3,72,59,45,54,50,45,100,74,40,30.19,30.01,16,2,16,0.00
2013-8-4,71,58,42,56,49,42,100,75,44,30.24,30.09,7,0,7,0.00
2013-8-5,71,60,50,64,58,49,100,93,75,30.09,29.85,11,0,11,0.03
2013-8-6,77,67,59,65,60,56,100,82,51,29.87,29.76,19,1,19,1.07
2013-8-7,72,62,48,62,55,45,100,82,43,30.04,29.68,16,2,16,0.04
2013-8-8,75,60,42,57,49,42,100,74,35,30.07,29.99,11,1,12,0.00
2013-8-9,72,61,52,56,52,46,100,75,44,30.10,29.97,5,0,5,0.00
2013-8-10,72,61,51,58,54,50,96,78,48,30.17,30.10,0,0,0,0.00
2013-8-11,76,61,45,62,54,45,100,80,46,30.13,30.02,0,0,0,0.00
2013-8-12,76,62,47,63,54,45,100,79,43,30.08,29.96,0,0,0,0.01
2013-8-13,65,53,39,50,45,39,100,77,46,30.20,30.07,0,0,0,0.00
2013-8-14,69,53,36,51,44,36,100,76,42,30.22,30.12,0,0,0,0.00
2013-8-15,76,60,43,57,50,43,100,74,39,30.14,30.08,0,0,0,0.00
2013-8-16,80,63,45,61,54,44,100,75,35,30.19,30.14,0,0,0,0.00
2013-8-17,80,65,49,60,54,48,100,73,40,30.25,30.15,0,0,0,0.00
2013-8-18,80,66,51,61,56,50,100,75,42,30.19,30.07,0,0,0,0.00
2013-8-19,79,66,53,66,60,53,100,83,60,30.07,29.98,0,0,0,0.00
2013-8-20,85,72,59,70,65,59,100,80,57,30.02,29.95,0,0,0,0.00
2013-8-21,87,72,59,74,67,59,100,85,60,30.02,29.88,0,0,0,0.45
2013-8-22,81,66,54,64,56,49,100,76,35,30.16,30.02,0,0,0,0.00
2013-8-23,78,65,50,62,55,49,100,74,50,30.20,30.13,0,0,0,0.00
2013-8-24,79,69,57,67,60,54,96,74,49,30.22,30.07,0,0,0,0.00
2013-8-25,91,79,69,73,70,66,94,75,53,30.09,30.00,0,0,0,0.00
2013-8-26,86,76,66,76,71,64,100,87,66,30.10,29.95,0,0,0,1.70
2013-8-27,84,76,69,77,73,69,100,93,74,29.98,29.85,0,0,0,0.12
2013-8-28,84,74,67,71,68,64,100,83,56,30.08,29.93,0,0,0,0.01
2013-8-29,81,72,63,70,67,63,100,86,63,30.09,29.91,0,0,0,1.38
2013-8-30,76,71,59,72,65,57,100,85,61,29.96,29.83,0,0,0,0.00
2013-8-31,80,64,51,66,60,51,100,87,55,29.94,29.80,0,0,0,0.00
2013-9-1,74,67,60,67,62,55,100,85,60,29.90,29.75,0,0,0,0.15
2013-9-2,61,55,44,57,51,44,98,86,67,30.05,29.90,0,0,0,0.01
2013-9-3,73,55,38,55,48,38,100,80,43,30.07,29.99,0,0,0,0.00
2013-9-4,74,60,49,61,55,48,100,85,55,30.19,30.00,0,0,0,0.00
2013-9-5,73,56,39,56,49,39,100,79,46,30.30,30.19,0,0,0,0.01
2013-9-6,81,66,51,70,59,49,96,79,59,30.20,29.95,0,0,0,0.00
2013-9-7,86,72,58,70,64,54,100,79,52,30.11,29.92,0,0,0,0.00
2013-9-8,69,60,47,55,51,46,99,74,49,30.16,29.99,0,0,0,0.00
2013-9-9,80,68,59,73,64,53,98,87,74,29.99,29.72,0,0,0,0.00
2013-9-10,82,68,60,69,65,59,100,90,56,29.96,29.74,0,0,0,0.25
2013-9-11,80,66,54,65,60,53,100,83,47,30.02,29.95,0,0,0,0.00
2013-9-12,65,56,41,55,50,40,100,80,55,30.19,29.99,0,0,0,0.00
2013-9-13,63,48,35,48,41,35,100,79,40,30.25,30.11,0,0,0,0.01
2013-9-14,69,54,38,55,47,38,100,81,46,30.11,29.97,0,0,0,0.15
2013-9-15,59,52,37,55,50,36,100,91,76,30.29,29.97,0,0,0,0.32
2013-9-16,62,44,30,46,37,30,100,81,41,30.42,30.29,0,0,0,0.01
2013-9-17,66,50,32,54,45,32,100,83,52,30.33,30.07,0,0,0,0.04
2013-9-18,67,60,54,65,60,54,100,99,92,30.07,29.84,0,0,0,0.76
2013-9-19,77,68,63,71,66,63,100,94,78,29.86,29.73,0,0,0,0.38
2013-9-20,67,60,46,64,56,44,100,88,64,29.84,29.72,0,0,0,0.01
2013-9-21,58,47,36,46,42,35,100,84,53,29.99,29.84,0,0,0,0.00
2013-9-22,59,44,29,44,38,29,100,80,52,30.08,29.99,0,0,0,0.01
2013-9-23,64,51,40,51,45,39,96,81,59,30.11,30.03,0,0,0,0.00
2013-9-24,70,54,37,54,47,37,100,82,48,30.07,29.99,0,0,0,0.01
2013-9-25,69,52,38,53,46,38,100,83,48,30.04,29.97,0,0,0,0.00
2013-9-26,70,55,37,55,49,37,100,82,53,30.07,30.02,0,0,0,0.01
2013-9-27,76,63,51,57,52,48,89,68,40,30.10,29.99,0,0,0,0.00
2013-9-28,75,59,50,63,53,47,100,80,56,30.02,29.75,0,0,0,0.69
2013-9-29,69,53,39,50,45,39,100,78,37,30.01,29.92,0,0,0,0.00
2013-9-30,70,57,46,49,46,44,97,69,41,29.93,29.74,0,0,0,0.01
2013-10-1,76,62,47,56,46,29,91,60,23,29.96,29.70,0,0,0,0.00
2013-10-2,73,56,36,46,39,32,95,57,23,30.08,29.96,0,0,0,0.00
2013-10-3,64,55,47,56,51,41,100,87,54,30.02,29.90,0,0,0,0.82
2013-10-4,55,53,51,54,52,51,100,97,91,30.06,29.94,0,0,0,0.18
2013-10-5,58,55,53,58,55,52,100,99,96,30.03,29.72,0,0,0,1.75
2013-10-6,59,52,47,56,47,40,100,84,51,29.73,29.65,0,0,0,0.04
2013-10-7,60,48,38,46,40,35,100,79,41,30.03,29.70,0,0,0,0.01
2013-10-8,72,54,33,47,42,33,100,67,35,30.07,29.98,0,0,0,0.00
2013-10-9,71,60,50,51,48,45,82,65,44,30.14,30.03,0,0,0,0.00
2013-10-10,70,55,38,49,44,38,100,70,38,30.13,30.03,0,0,0,0.00
2013-10-11,72,60,47,55,51,46,96,75,53,30.04,29.87,0,0,0,0.00
2013-10-12,65,57,47,55,46,38,84,67,47,30.07,29.82,0,0,0,0.00
2013-10-13,56,46,32,42,37,30,93,71,39,30.39,30.07,0,0,0,0.00
2013-10-14,57,43,28,43,35,27,100,75,45,30.40,30.13,0,0,0,0.00
2013-10-15,52,49,46,52,48,41,100,96,80,30.13,29.65,0,0,0,1.27
2013-10-16,46,43,32,46,41,32,100,93,84,29.89,29.66,0,0,0,0.16
2013-10-17,53,39,28,43,34,28,100,85,52,29.89,29.73,0,0,0,0.01
2013-10-18,43,38,31,43,37,30,100,96,83,29.88,29.70,0,0,0,0.20
2013-10-19,47,36,30,39,33,30,100,92,56,29.84,29.62,0,0,0,0.16
2013-10-20,41,34,30,38,34,30,100,98,76,29.79,29.65,0,0,0,0.30
2013-10-21,36,32,28,35,27,20,99,82,60,29.83,29.66,0,0,0,0.00
2013-10-22,39,34,28,30,27,24,89,76,59,29.97,29.80,0,0,0,0.01
2013-10-23,38,31,26,28,23,20,89,74,49,29.99,29.92,0,0,0,0.00
2013-10-24,39,34,30,28,25,22,84,71,55,30.24,29.98,0,0,0,0.00
2013-10-25,49,37,26,37,27,21,92,69,46,30.27,29.63,0,0,0,0.00
2013-10-26,49,40,34,38,32,27,92,71,59,30.01,29.62,0,0,0,0.02
2013-10-27,52,40,30,32,30,27,89,69,40,30.11,29.76,0,0,0,0.00
2013-10-28,39,32,23,31,20,14,85,63,38,30.47,30.11,0,0,0,0.00
2013-10-29,36,30,20,35,26,17,98,84,68,30.47,30.14,0,0,0,0.04
2013-10-30,49,42,36,49,42,36,100,100,99,30.14,29.68,0,0,0,0.10
2013-10-31,54,50,44,54,50,44,100,100,100,29.68,29.17,0,0,0,0.19
2013-11-1,44,41,38,44,40,37,100,98,89,29.72,29.18,0,0,0,0.08
2013-11-2,40,36,28,37,34,27,98,92,74,30.14,29.72,0,0,0,0.01
2013-11-3,44,36,28,36,32,27,100,87,62,30.25,30.11,0,0,0,0.01
2013-11-4,46,42,39,44,38,34,100,86,69,30.13,29.92,0,0,0,0.15
2013-11-5,45,36,29,39,34,28,100,92,69,30.24,29.91,0,0,0,0.27
2013-11-6,34,31,22,33,28,20,100,90,75,30.12,29.82,0,0,0,0.39
2013-11-7,35,27,19,23,20,17,93,76,52,30.19,30.11,0,0,0,0.00
2013-11-8,36,31,24,33,26,20,99,82,64,30.22,29.70,0,0,0,0.08
2013-11-9,39,36,33,39,33,28,100,88,73,29.98,29.59,0,0,0,0.37
2013-11-10,41,36,33,32,27,25,95,71,55,30.25,29.96,0,0,0,0.00
2013-11-11,33,25,18,32,16,7,96,69,46,30.60,30.01,0,0,0,0.00
2013-11-12,27,18,10,12,7,1,85,65,34,30.70,30.48,0,0,0,0.00
2013-11-13,45,28,14,28,19,7,85,70,48,30.50,29.86,0,0,0,0.00
2013-11-14,38,32,28,29,26,23,96,78,66,29.86,29.78,0,0,0,0.00
2013-11-15,51,36,25,38,32,25,100,84,57,29.87,29.75,0,0,0,0.00
2013-11-16,53,42,37,53,40,31,100,92,77,29.76,29.28,0,0,0,0.89
2013-11-17,52,41,34,48,39,28,100,92,77,29.52,29.18,0,0,0,0.02
2013-11-18,36,28,25,28,19,16,83,71,63,30.24,29.48,0,0,0,0.00
2013-11-19,34,24,14,24,17,12,91,76,51,30.34,30.13,0,0,0,0.00
2013-11-20,36,32,31,32,28,23,100,82,64,30.14,30.06,0,0,0,0.00
2013-11-21,34,32,27,34,31,24,100,98,88,30.35,30.07,0,0,0,0.19
2013-11-22,31,24,16,24,16,8,92,72,43,30.48,30.33,0,0,0,0.01
2013-11-23,18,8,0,10,0,-6,82,69,51,30.74,30.42,0,0,0,0.00
2013-11-24,21,9,-6,9,-1,-11,80,64,47,30.70,30.03,0,0,0,0.00
2013-11-25,33,28,21,26,20,8,79,70,58,30.06,29.86,0,0,0,0.00
2013-11-26,30,16,6,23,6,-1,84,65,47,30.27,29.91,0,0,0,0.00
2013-11-27,23,15,5,15,8,1,89,74,50,30.32,30.17,0,0,0,0.00
2013-11-28,21,16,6,16,12,2,89,84,67,30.52,30.12,0,0,0,0.00
2013-11-29,24,15,1,17,10,-3,89,81,72,30.62,30.28,0,0,0,0.00
2013-11-30,38,29,24,26,22,17,86,75,60,30.28,29.99,0,0,0,0.04
2013-12-1,33,29,23,27,24,20,91,82,64,30.15,29.97,0,0,0,0.00
2013-12-2,32,28,21,28,24,18,95,86,71,29.97,29.76,0,0,0,0.00
2013-12-3,30,28,24,30,27,22,99,95,90,29.87,29.73,0,0,0,0.00
2013-12-4,34,29,24,34,29,22,100,98,93,29.85,29.36,0,0,0,0.14
2013-12-5,29,11,0,28,5,-6,96,77,66,30.26,29.45,0,0,0,0.00
2013-12-6,6,-2,-8,-4,-8,-14,80,74,62,30.59,30.26,0,0,0,0.00
2013-12-7,4,-7,-18,-7,-15,-24,76,70,58,30.71,30.59,0,0,0,0.00
2013-12-8,10,1,-14,6,-4,-20,85,79,72,30.63,30.04,0,0,0,0.00
2013-12-9,10,2,-13,7,-4,-19,85,76,64,30.12,29.90,0,0,0,0.00
2013-12-10,6,-2,-13,-2,-8,-19,78,74,65,30.21,29.88,0,0,0,0.00
2013-12-11,-1,-7,-13,-8,-14,-20,78,70,57,30.52,30.21,0,0,0,0.00
2013-12-12,12,3,-10,4,-3,-17,78,73,64,30.43,30.18,0,0,0,0.00
2013-12-13,10,8,4,5,1,-4,83,73,65,30.38,30.17,0,0,0,0.00
2013-12-14,17,11,3,11,5,-3,87,79,72,30.38,29.93,0,0,0,0.00
2013-12-15,10,-2,-17,5,-9,-24,80,71,60,30.21,29.93,0,0,0,0.00
2013-12-16,9,-11,-19,6,-18,-27,86,72,63,30.22,29.93,0,0,0,0.00
2013-12-17,25,17,9,21,13,6,91,83,71,30.03,29.83,0,0,0,0.00
2013-12-18,25,14,-4,13,7,-10,85,73,55,30.07,29.70,10,0,10,0.01
2013-12-19,21,15,6,16,10,2,89,80,69,30.09,29.77,16,2,16,0.00
2013-12-20,19,15,10,15,12,6,89,84,79,30.05,29.86,10,2,10,0.00
2013-12-21,23,20,18,18,16,15,89,84,78,29.98,29.85,4,0,4,0.00
2013-12-22,24,20,16,19,16,14,90,83,76,30.13,29.87,14,3,14,0.00
2013-12-23,17,11,-6,14,7,-12,89,83,76,30.46,30.13,11,1,11,0.00
2013-12-24,15,1,-16,6,-6,-23,85,72,60,30.55,30.20,16,1,16,0.00
2013-12-25,14,10,6,9,6,2,86,83,78,30.20,30.06,14,1,14,0.00
2013-12-26,15,10,1,11,5,-4,86,80,73,30.22,30.06,12,0,12,0.00
2013-12-27,28,22,15,25,19,11,95,90,85,30.20,29.85,10,1,16,0.00
2013-12-28,35,27,21,34,26,20,100,96,88,29.96,29.70,19,1,19,0.04
2013-12-29,28,5,-15,25,-1,-22,93,74,63,30.28,29.74,21,4,21,0.00
2013-12-30,0,-11,-25,-12,-21,-33,74,62,42,30.37,30.22,9,0,9,0.00
2013-12-31,0,-8,-20,-13,-17,-27,74,67,51,30.48,30.18,11,1,14,0.00
2014-1-1,2,-4,-14,-7,-12,-20,74,68,60,30.57,30.44,12,2,12,0.00
2014-1-2,7,-4,-18,-6,-12,-26,75,68,53,30.50,30.41,15,1,15,0.00